Regional Weather Roundup
Issued by NWS Midland/Odessa, TX

Skip options and go directly to product.
Home | Oldest Version | Previous Version | Current Version | All | Text Only | Save Text | Print | Product List | Glossary On

Skip product version selection by date and time.   
953
ASUS44 KMAF 271110
RWRMAF
MIDLAND AREA WEATHER ROUNDUP
NATIONAL WEATHER SERVICE MIDLAND TX
500 AM CST FRI FEB 27 2015

...IN SOUTHWEST TEXAS AND SOUTHEAST NEW MEXICO...

CITY           SKY/WX    TMP DP  RH WIND       PRES   REMARKS
ALPINE         CLOUDY    24  22  95 NE9       30.13F VSB 1/2 WCI  14
ANDREWS        LGT SNOW  19  17  93 E10       30.22F WCI   7
ARTESIA        LGT SNOW  23  21  93 SE12      30.15F WCI  12
BIG SPRING     CLOUDY    21  17  83 NE13      30.30R WCI   9
CARLSBAD       CLOUDY    26  17  68 E10       30.16F WCI  16
DRYDEN           N/A     30  25  81 E12       30.18S WCI  20
FORT STOCKTON  CLOUDY    25  22  88 E8        30.18S WCI  16
GUAD PASS      FOG       19  18  95 NE24      30.00S VSB 3/4 WCI   2
HOBBS          LGT SNOW  19  18  93 E12       30.18S WCI   7
MARFA          CLOUDY    25  23  93 NE13      30.04F WCI  13
MIDLAND AIRPK  MIX PCPN  22  20  90 NE12      30.25S WCI  11
MIDLAND INTL   CLOUDY    21  18  88 NE16      30.22F FOG     WCI   7
ODESSA         CLOUDY    20  17  88 E15       30.22F FOG     WCI   6
PECOS          CLOUDY    28  19  69 NE13      30.20S WCI  17
PRESIDIO       FAIR      34  26  72 NE13      30.06F WCI  25
SEMINOLE       LGT SNOW  19  16  88 E14       30.23F WCI   5
SNYDER         LGT SNOW  18  15  87 NE15      30.31R VSB 1   WCI   4
WINK           CLOUDY    24  17  74 E16       30.20F WCI  11
$$
...OTHER STATIONS IN TEXAS...

CITY           SKY/WX    TMP DP  RH WIND       PRES   REMARKS
ABILENE        LGT SNOW  24  14  65 NE8       30.34R WCI  15
AMARILLO       LGT SNOW  14  11  87 E13       30.26R VSB 1   WCI   0
AUSTIN         CLOUDY    35  22  58 NE17      30.31F WCI  25
BROWNSVILLE    CLOUDY    56  50  80 NE5       30.18F
CORPUS CHRISTI CLOUDY    40  33  76 N16       30.27F WCI  31
DALLAS FTW     MOCLDY    26  11  52 NE10      30.42R WCI  16
DEL RIO        CLOUDY    36  29  75 E5        30.27S WCI  32
EL PASO        CLOUDY    31  22  69 E10       30.00S WCI  22
HOUSTON INT    CLOUDY    37  32  82 NE12      30.33S WCI  29
LUBBOCK        SNOW      15  12  88 E12       30.26R VSB 1/4 WCI   2
SAN ANGELO     CLOUDY    25  22  88 NE13      30.29R WCI  14
SAN ANTONIO    CLOUDY    36  21  54 NE9       30.31S WCI  29
WACO           CLOUDY    29  17  61 NE15      30.38S WCI  18
WICHITA FALLS  NOT AVBL
$$
...OTHER LOCATIONS IN NEW MEXICO...

CITY           SKY/WX    TMP DP  RH WIND       PRES   REMARKS
ALAMAGORDO     CLOUDY    32  32 100 MISG      29.99R
ALBUQUERQUE    CLOUDY    23  16  74 NE20      29.96S WCI   8
CANNON AFB     LGT SNOW  14  12  92 SE10      30.17R FOG     WCI   1
CLOVIS         CLOUDY    14  10  85 E10       30.18R WCI   1
HOLLOMAN AFB   CLOUDY    32  25  74 S6        29.98R WCI  27
ROSWELL        LGT SNOW  21  19  92 E8        30.15F VSB 3/4 WCI  11
RUIDOSO        LGT SNOW  14  10  85 SE6       29.98S WCI   5
SANTA FE       CLOUDY    18   8  65 SE13      29.95R WCI   5
TRUTH OR CONSE MOCLDY    32  31  96 N3        29.94R
TUCUMCARI      LGT SNOW  18  14  84 SE13      30.18F VSB 3/4 WCI   5
$$

USA.gov is the U.S. government's official web portal to all federal, state and local government web resources and services.